Regional Weather Roundup
Issued by NWS

Home | Current Version | Previous Version | Graphics & Text | Print | Product List | Glossary Off
Versions: 1 2 3 4 5 6 7 8 9 10 11 12 13 14 15 16 17 18 19 20 21 22 23 24 25 26 27 28 29 30 31 32 33 34 35 36 37 38 39 40 41 42 43 44 45 46 47 48 49 50

000
ASUS43 KMKX 251321
RWRWI

WISCONSIN REGIONAL WEATHER ROUNDUP
NATIONAL WEATHER SERVICE MILWAUKEE/SULLIVAN WI
800 AM CDT TUE APR 25 2017

NOTE: "FAIR" INDICATES FEW OR NO CLOUDS BELOW 12,000 FEET WITH NO
SIGNIFICANT WEATHER AND/OR OBSTRUCTIONS TO VISIBILITY.

WIZ001-002-006>008-014>016-023>028-251400-
NORTHWEST WISCONSIN

CITY           SKY/WX    TMP DP  RH WIND       PRES   REMARKS
SUPERIOR ARPT  LGT RAIN  39  37  93 NE8       29.60R WCI  34
ASHLAND        CLOUDY    43  38  82 N5        29.58S
HAYWARD        CLOUDY    57  34  41 SE7       29.55S
SIREN          CLOUDY    47  42  84 CALM      29.53R
CUMBERLAND     CLOUDY    55  32  41 SE7       29.54S
RICE LAKE      CLOUDY    58  34  40 SE12      29.55S
CHETEK         CLOUDY    56  36  46 SE3       29.55R
LADYSMITH      CLOUDY    57  35  43 SE10      29.58F
EAU CLAIRE     CLOUDY    59  34  39 S8        29.55R
MENOMONIE      CLOUDY    57  38  47 E5        29.54R
NEW RICHMOND   CLOUDY    60  34  37 SE7       29.52R
OSCEOLA        CLOUDY    59  39  47 SE6       29.54R
$$

WIZ003>005-009-010-017-018-251400-
NORTH CENTRAL WISCONSIN

CITY           SKY/WX    TMP DP  RH WIND       PRES   REMARKS
MANITOWISH WTR CLOUDY    51  35  54 SE8       29.62S
ARBOR VITAE    CLOUDY    55  36  49 SE8       29.62S
WOODRUFF       CLOUDY    55  36  49 SE8       29.62S
RHINELANDER    PTSUNNY   56  36  47 SE13G20   29.65S
EAGLE RIVER    CLOUDY    53  32  46 S8        29.65S
LAND O LAKES   CLOUDY    52  33  48 SE6       29.67R
PHILLIPS       CLOUDY    55  36  49 SE9       29.58F
TOMAHAWK       CLOUDY    53  36  52 SE5       29.64S
MEDFORD        CLOUDY    53  36  53 SE12G18   29.60F
MERRILL        PTSUNNY   53  37  54 SE7       29.65S
$$

WIZ029-030-035-036-043>047-251400-
CENTRAL WISCONSIN

CITY           SKY/WX    TMP DP  RH WIND       PRES   REMARKS
WAUSAU         MOSUNNY   54  37  52 SE10      29.63S
MOSINEE        PTSUNNY   54  37  54 SE10      29.65S
MARSHFIELD     PTSUNNY   54  37  52 SE9       29.61S
STEVENS POINT  PTSUNNY   54  38  53 SE9       29.65S
WAUPACA        CLOUDY    56  41  55 SE6       29.67S
WAUTOMA        PTSUNNY   57  42  57 SE9       29.66S
WISC RAPIDS    NOT AVBL
CAMP DOUGLAS   MOSUNNY   57  39  51 SE10      29.61R
$$

WIZ011>013-019>022-031-037>040-048>050-251400-
NORTHEAST WISCONSIN

CITY           SKY/WX    TMP DP  RH WIND       PRES   REMARKS
ANTIGO         CLOUDY    47  36  64 SE10      29.68S
SHAWANO        CLOUDY    55  39  56 SE3       29.69S
OCONTO         MOSUNNY   53  42  65 SE9       29.71S
STURGEON BAY   CLOUDY    51  42  71 S17G25    29.73S
GREEN BAY      PTSUNNY   54  45  71 SE12      29.70S
MANITOWOC      MOSUNNY   51  42  71 S17       29.73S
APPLETON       PTSUNNY   55  39  54 SE10      29.67S
CLINTONVILLE   CLOUDY    54  37  54 SE6       29.68S
OSHKOSH        MOSUNNY   57  43  59 S10       29.67S
$$

WIZ032>034-041-042-053>061-251400-
SOUTHWEST WISCONSIN

CITY           SKY/WX    TMP DP  RH WIND       PRES   REMARKS
LA CROSSE      MOSUNNY   61  36  39 S8        29.56S
SPARTA         SUNNY     61  36  39 S10G17    29.59F
VIROQUA        SUNNY     58  35  43 S14       29.59F
BOSCOBEL       SUNNY     60  37  42 CALM      29.60S
PRAIRIE DU CHI SUNNY     57  35  43 E6        29.59S
PLATTEVILLE    MOSUNNY   56  40  55 SE6       29.62S
$$

WIZ056-057-062-063-064-067-068-251400-
SOUTH CENTRAL WISCONSIN

CITY           SKY/WX    TMP DP  RH WIND       PRES   REMARKS
REEDSBURG      SUNNY     58  39  50 SE6       29.62S
BARABOO/DELLS  SUNNY     57  39  50 S9        29.63S
LONE ROCK      SUNNY     59  40  49 E8        29.62S
MINERAL POINT  SUNNY     55  37  50 SE10      29.62S
MADISON        MOSUNNY   58  41  53 S9        29.65S
MIDDLETON      SUNNY     59  42  52 S8        29.65S
WATERTOWN      MOSUNNY   57  45  63 SE12      29.67S
MONROE         SUNNY     55  41  58 S12       29.65R
JANESVILLE     MOSUNNY   59  45  58 SE12      29.66S
$$

WIZ051-052-058>065-066-070>072-251400-
SOUTHEAST WISCONSIN

CITY           SKY/WX    TMP DP  RH WIND       PRES   REMARKS
MILWAUKEE      CLOUDY    56  47  71 SE8       29.72R
WAUKESHA       SUNNY     54  45  71 SE12      29.72R
MILWAUKEE/TIMM SUNNY     55  43  62 SE6       29.72R
RACINE         MOSUNNY   51  44  77 S14G21    29.73S
KENOSHA        CLOUDY    56  48  74 S9        29.71R
FOND DU LAC    SUNNY     57  42  57 SE14      29.68S
SHEBOYGAN      CLOUDY    50  43  77 S12       29.73S
WEST BEND      SUNNY     52  43  71 SE6       29.71S
JUNEAU         MOSUNNY   56  45  67 SE10      29.69S
$$

LSZ147-162-251400-
LAKE SUPERIOR

STATION/POSITION TIME  TEMP    WIND        PRES    WAVE
                       AIR SEA DIR/SP/G            HT/PER
                 (UTC) (F)     (DEG/KT/KT) (MB)    (FT/S)
DEVILS ISLAND    1300   39      50/ 14/ 15 1003.0R
PORT WING        1140   38      20/  8/  9 1002.4R
SAXON HARBOR     1240   42     350/  2/  5 1001.4S
$$

LMZ867-665-643>646-251400-
LAKE MICHIGAN

STATION/POSITION TIME  TEMP    WIND        PRES    WAVE
                       AIR SEA DIR/SP/G            HT/PER
                 (UTC) (F)     (DEG/KT/KT) (MB)    (FT/S)
CHAMBERS ISLAND  1240   52     130/  7/ 14 1006.4S
N MID LAKE BUOY  1250   42 37  120/  8/  8 1008.8F   1/ 3
NORTHPORT PIER   1240   46     150/ 11/ 15 1007.5S
KEWAUNEE LAKESHO 1254   47     180/  9/ 11 1006.7R
SHEBOYGAN LAKESH 1300   46     180/  8/  9 1006.9R
PORT WASHINGTON  1230   49     180/  6/  8 1007.8R
MILWAUKEE LAKESH 1300   47     120/  7/  8   N/A
S MID LAKE BUOY  1250   46 41  100/ 12/ 14 1007.4S   1/ 3
KENOSHA   LAKESH 1300   48     170/ 13/ 17 1006.4
$$

TC  - TEMPERATURE IN CELSIUS
VSB - VISIBILITY IN STATUTE MILES
WCI - WIND CHILL INDEX
HX  - HEAT INDEX




USA.gov is the U.S. government's official web portal to all federal, state and local government web resources and services.